owner,sensor,date,latitude,longitude,vertical_datum,wind_speed,wind_to_direction,wind_speed_of_gust,qcFlag 
NDBC,ioos:station:NOAA.NDBC:SMKF1:1,2019-12-01T00:50:00Z,24.6280,-81.1120,48.5,5.7,110.0,6.7,'11111222,11111222,11111222' 
NDBC,ioos:station:NOAA.NDBC:SMKF1:1,2019-12-01T01:50:00Z,24.6280,-81.1120,48.5,6.2,90.0,7.2,'11111222,11111222,11111222' 
NDBC,ioos:station:NOAA.NDBC:SMKF1:1,2019-12-01T02:50:00Z,24.6280,-81.1120,48.5,6.7,100.0,7.7,'11111222,11111222,11111222' 
NDBC,ioos:station:NOAA.NDBC:SMKF1:1,2019-12-01T03:50:00Z,24.6280,-81.1120,48.5,6.2,100.0,7.7,'11111222,11111222,11111222' 
NDBC,ioos:station:NOAA.NDBC:SMKF1:1,2019-12-01T04:50:00Z,24.6280,-81.1120,48.5,6.7,110.0,9.3,'11111222,11111222,11111222' 
NDBC,ioos:station:NOAA.NDBC:SMKF1:1,2019-12-01T05:50:00Z,24.6280,-81.1120,48.5,6.2,120.0,7.7,'11111222,11111222,11111222' 
NDBC,ioos:station:NOAA.NDBC:SMKF1:1,2019-12-01T06:50:00Z,24.6280,-81.1120,48.5,6.2,130.0,7.7,'11111222,11111222,11111222' 
NDBC,ioos:station:NOAA.NDBC:SMKF1:1,2019-12-01T07:50:00Z,24.6280,-81.1120,48.5,4.6,140.0,6.2,'11111222,11111222,11111222' 
NDBC,ioos:station:NOAA.NDBC:SMKF1:1,2019-12-01T08:50:00Z,24.6280,-81.1120,48.5,5.7,150.0,7.2,'11111222,11111222,11111222' 
NDBC,ioos:station:NOAA.NDBC:SMKF1:1,2019-12-01T09:50:00Z,24.6280,-81.1120,48.5,5.7,140.0,6.7,'11111222,11111222,11111222' 
NDBC,ioos:station:NOAA.NDBC:SMKF1:1,2019-12-01T10:50:00Z,24.6280,-81.1120,48.5,5.1,130.0,6.2,'11111222,11111222,11111222' 
NDBC,ioos:station:NOAA.NDBC:SMKF1:1,2019-12-01T11:50:00Z,24.6280,-81.1120,48.5,4.6,140.0,5.7,'11111222,11111222,11111222' 
NDBC,ioos:station:NOAA.NDBC:SMKF1:1,2019-12-01T12:50:00Z,24.6280,-81.1120,48.5,4.6,160.0,6.2,'11111222,11111222,11111222' 
NDBC,ioos:station:NOAA.NDBC:SMKF1:1,2019-12-01T13:50:00Z,24.6280,-81.1120,48.5,2.6,180.0,4.1,'11111222,11111222,11111222' 
NDBC,ioos:station:NOAA.NDBC:SMKF1:1,2019-12-01T14:50:00Z,24.6280,-81.1120,48.5,1.5,170.0,2.1,'11111222,11111222,11111222' 
NDBC,ioos:station:NOAA.NDBC:SMKF1:1,2019-12-01T15:50:00Z,24.6280,-81.1120,48.5,5.1,150.0,6.2,'11111222,11111222,11111222' 
NDBC,ioos:station:NOAA.NDBC:SMKF1:1,2019-12-01T16:50:00Z,24.6280,-81.1120,48.5,4.1,160.0,5.7,'11111222,11111222,11111222' 
NDBC,ioos:station:NOAA.NDBC:SMKF1:1,2019-12-01T17:50:00Z,24.6280,-81.1120,48.5,4.1,170.0,6.2,'11111222,11111222,11111222' 
NDBC,ioos:station:NOAA.NDBC:SMKF1:1,2019-12-01T18:50:00Z,24.6280,-81.1120,48.5,3.6,180.0,5.7,'11111222,11111222,11111222' 
NDBC,ioos:station:NOAA.NDBC:SMKF1:1,2019-12-01T19:50:00Z,24.6280,-81.1120,48.5,3.1,180.0,4.6,'11111222,11111222,11111222' 
NDBC,ioos:station:NOAA.NDBC:SMKF1:1,2019-12-01T20:50:00Z,24.6280,-81.1120,48.5,1.5,210.0,2.6,'11111222,11111222,11111222' 
NDBC,ioos:station:NOAA.NDBC:SMKF1:1,2019-12-01T21:50:00Z,24.6280,-81.1120,48.5,2.6,220.0,3.6,'11111222,11111222,11111222' 
NDBC,ioos:station:NOAA.NDBC:SMKF1:1,2019-12-01T22:50:00Z,24.6280,-81.1120,48.5,4.1,240.0,5.1,'11111222,11111222,11111222' 
NDBC,ioos:station:NOAA.NDBC:SMKF1:1,2019-12-01T23:50:00Z,24.6280,-81.1120,48.5,2.6,260.0,3.6,'11111222,11111222,11111222' 
NDBC,ioos:station:NOAA.NDBC:SMKF1:1,2019-12-02T00:50:00Z,24.6280,-81.1120,48.5,2.6,300.0,3.1,'11111222,11111222,11111222' 
NDBC,ioos:station:NOAA.NDBC:SMKF1:1,2019-12-02T01:50:00Z,24.6280,-81.1120,48.5,2.1,300.0,2.6,'11111222,11111222,11111222' 
NDBC,ioos:station:NOAA.NDBC:SMKF1:1,2019-12-02T02:50:00Z,24.6280,-81.1120,48.5,1.5,310.0,2.1,'11111222,11111222,11111222' 
NDBC,ioos:station:NOAA.NDBC:SMKF1:1,2019-12-02T03:40:00Z,24.6280,-81.1120,48.5,1.0,320.0,1.5,'11111222,11111222,11111222' 
NDBC,ioos:station:NOAA.NDBC:SMKF1:1,2019-12-02T04:50:00Z,24.6280,-81.1120,48.5,2.6,170.0,3.6,'11111222,11111222,11111222' 
NDBC,ioos:station:NOAA.NDBC:SMKF1:1,2019-12-02T05:50:00Z,24.6280,-81.1120,48.5,3.6,200.0,4.6,'11111222,11111222,11111222' 
NDBC,ioos:station:NOAA.NDBC:SMKF1:1,2019-12-02T06:50:00Z,24.6280,-81.1120,48.5,3.6,210.0,6.2,'11111222,11111222,11111222' 
NDBC,ioos:station:NOAA.NDBC:SMKF1:1,2019-12-02T07:50:00Z,24.6280,-81.1120,48.5,4.1,210.0,5.1,'11111222,11111222,11111222' 
NDBC,ioos:station:NOAA.NDBC:SMKF1:1,2019-12-02T08:50:00Z,24.6280,-81.1120,48.5,5.1,230.0,6.2,'11111222,11111222,11111222' 
NDBC,ioos:station:NOAA.NDBC:SMKF1:1,2019-12-02T09:50:00Z,24.6280,-81.1120,48.5,6.2,230.0,7.2,'11111222,11111222,11111222' 
NDBC,ioos:station:NOAA.NDBC:SMKF1:1,2019-12-02T10:50:00Z,24.6280,-81.1120,48.5,7.2,240.0,8.2,'11111222,11111222,11111222' 
NDBC,ioos:station:NOAA.NDBC:SMKF1:1,2019-12-02T11:50:00Z,24.6280,-81.1120,48.5,7.2,250.0,8.8,'11111222,11111222,11111222' 
NDBC,ioos:station:NOAA.NDBC:SMKF1:1,2019-12-02T12:50:00Z,24.6280,-81.1120,48.5,6.2,250.0,8.2,'11111222,11111222,11111222' 
NDBC,ioos:station:NOAA.NDBC:SMKF1:1,2019-12-02T13:50:00Z,24.6280,-81.1120,48.5,7.2,260.0,8.8,'11111222,11111222,11111222' 
NDBC,ioos:station:NOAA.NDBC:SMKF1:1,2019-12-02T14:50:00Z,24.6280,-81.1120,48.5,8.2,250.0,9.8,'11111222,11111222,11111222' 
NDBC,ioos:station:NOAA.NDBC:SMKF1:1,2019-12-02T15:50:00Z,24.6280,-81.1120,48.5,8.2,250.0,10.3,'11111222,11111222,11111222' 
NDBC,ioos:station:NOAA.NDBC:SMKF1:1,2019-12-02T16:50:00Z,24.6280,-81.1120,48.5,8.8,260.0,9.8,'11111222,11111222,11111222' 
NDBC,ioos:station:NOAA.NDBC:SMKF1:1,2019-12-02T17:50:00Z,24.6280,-81.1120,48.5,9.3,290.0,10.8,'11111222,11111222,11111222' 
NDBC,ioos:station:NOAA.NDBC:SMKF1:1,2019-12-02T18:50:00Z,24.6280,-81.1120,48.5,9.8,300.0,11.8,'11111222,11111222,11111222' 
NDBC,ioos:station:NOAA.NDBC:SMKF1:1,2019-12-02T19:50:00Z,24.6280,-81.1120,48.5,10.3,300.0,12.4,'11111222,11111222,11111222' 
NDBC,ioos:station:NOAA.NDBC:SMKF1:1,2019-12-02T20:50:00Z,24.6280,-81.1120,48.5,10.3,300.0,13.4,'11111222,11111222,11111222' 
NDBC,ioos:station:NOAA.NDBC:SMKF1:1,2019-12-02T21:50:00Z,24.6280,-81.1120,48.5,10.3,300.0,12.4,'11111222,11111222,11111222' 
NDBC,ioos:station:NOAA.NDBC:SMKF1:1,2019-12-02T22:50:00Z,24.6280,-81.1120,48.5,9.8,310.0,11.8,'11111222,11111222,11111222' 
NDBC,ioos:station:NOAA.NDBC:SMKF1:1,2019-12-02T23:50:00Z,24.6280,-81.1120,48.5,10.3,300.0,12.9,'11111222,11111222,11111222' 
NDBC,ioos:station:NOAA.NDBC:SMKF1:1,2019-12-03T00:50:00Z,24.6280,-81.1120,48.5,10.3,310.0,12.9,'11111222,11111222,11111222' 
NDBC,ioos:station:NOAA.NDBC:SMKF1:1,2019-12-03T01:40:00Z,24.6280,-81.1120,48.5,10.8,310.0,13.4,'11111222,11111222,11111222' 
NDBC,ioos:station:NOAA.NDBC:SMKF1:1,2019-12-03T02:50:00Z,24.6280,-81.1120,48.5,10.3,310.0,12.9,'11111222,11111222,11111222' 
NDBC,ioos:station:NOAA.NDBC:SMKF1:1,2019-12-03T03:50:00Z,24.6280,-81.1120,48.5,9.3,320.0,11.8,'11111222,11111222,11111222' 
NDBC,ioos:station:NOAA.NDBC:SMKF1:1,2019-12-03T04:50:00Z,24.6280,-81.1120,48.5,6.7,330.0,8.8,'11111222,11111222,11111222' 
NDBC,ioos:station:NOAA.NDBC:SMKF1:1,2019-12-03T05:50:00Z,24.6280,-81.1120,48.5,8.8,320.0,11.3,'11111222,11111222,11111222' 
NDBC,ioos:station:NOAA.NDBC:SMKF1:1,2019-12-03T06:50:00Z,24.6280,-81.1120,48.5,6.7,20.0,8.2,'11111222,11111222,11111222' 
NDBC,ioos:station:NOAA.NDBC:SMKF1:1,2019-12-03T07:50:00Z,24.6280,-81.1120,48.5,7.7,20.0,9.3,'11111222,11111222,11111222' 
NDBC,ioos:station:NOAA.NDBC:SMKF1:1,2019-12-03T08:50:00Z,24.6280,-81.1120,48.5,6.7,20.0,8.8,'11111222,11111222,11111222' 
NDBC,ioos:station:NOAA.NDBC:SMKF1:1,2019-12-03T09:50:00Z,24.6280,-81.1120,48.5,6.2,30.0,7.2,'11111222,11111222,11111222' 
NDBC,ioos:station:NOAA.NDBC:SMKF1:1,2019-12-03T10:50:00Z,24.6280,-81.1120,48.5,6.7,10.0,9.3,'11111222,11111222,11111222' 
NDBC,ioos:station:NOAA.NDBC:SMKF1:1,2019-12-03T11:50:00Z,24.6280,-81.1120,48.5,6.7,10.0,9.8,'11111222,11111222,11111222' 
NDBC,ioos:station:NOAA.NDBC:SMKF1:1,2019-12-03T12:50:00Z,24.6280,-81.1120,48.5,5.7,20.0,7.7,'11111222,11111222,11111222' 
NDBC,ioos:station:NOAA.NDBC:SMKF1:1,2019-12-03T13:50:00Z,24.6280,-81.1120,48.5,5.1,20.0,6.7,'11111222,11111222,11111222' 
NDBC,ioos:station:NOAA.NDBC:SMKF1:1,2019-12-03T14:50:00Z,24.6280,-81.1120,48.5,4.6,30.0,6.2,'11111222,11111222,11111222' 
NDBC,ioos:station:NOAA.NDBC:SMKF1:1,2019-12-03T15:50:00Z,24.6280,-81.1120,48.5,5.1,30.0,6.7,'11111222,11111222,11111222' 
NDBC,ioos:station:NOAA.NDBC:SMKF1:1,2019-12-03T16:40:00Z,24.6280,-81.1120,48.5,5.1,20.0,6.2,'11111222,11111222,11111222' 
NDBC,ioos:station:NOAA.NDBC:SMKF1:1,2019-12-03T17:50:00Z,24.6280,-81.1120,48.5,3.6,30.0,5.7,'11111222,11111222,11111222' 
NDBC,ioos:station:NOAA.NDBC:SMKF1:1,2019-12-03T18:50:00Z,24.6280,-81.1120,48.5,3.1,20.0,5.1,'11111222,11111222,11111222' 
NDBC,ioos:station:NOAA.NDBC:SMKF1:1,2019-12-03T19:50:00Z,24.6280,-81.1120,48.5,3.6,350.0,5.7,'11111222,11111222,11111222' 
NDBC,ioos:station:NOAA.NDBC:SMKF1:1,2019-12-03T20:40:00Z,24.6280,-81.1120,48.5,5.1,340.0,7.7,'11111222,11111222,11111222' 
NDBC,ioos:station:NOAA.NDBC:SMKF1:1,2019-12-03T21:40:00Z,24.6280,-81.1120,48.5,3.1,360.0,5.7,'11111222,11144222,11111222' 
NDBC,ioos:station:NOAA.NDBC:SMKF1:1,2019-12-03T22:40:00Z,24.6280,-81.1120,48.5,4.6,340.0,6.2,'11111222,11111222,11111222' 
NDBC,ioos:station:NOAA.NDBC:SMKF1:1,2019-12-03T23:40:00Z,24.6280,-81.1120,48.5,3.6,340.0,5.1,'11111222,11111222,11111222' 
NDBC,ioos:station:NOAA.NDBC:SMKF1:1,2019-12-04T00:40:00Z,24.6280,-81.1120,48.5,4.6,340.0,6.7,'11111222,11111222,11111222' 
NDBC,ioos:station:NOAA.NDBC:SMKF1:1,2019-12-04T01:50:00Z,24.6280,-81.1120,48.5,5.1,320.0,6.7,'11111222,11111222,11111222' 
NDBC,ioos:station:NOAA.NDBC:SMKF1:1,2019-12-04T02:40:00Z,24.6280,-81.1120,48.5,4.6,330.0,6.2,'11111222,11111222,11111222' 
NDBC,ioos:station:NOAA.NDBC:SMKF1:1,2019-12-04T03:40:00Z,24.6280,-81.1120,48.5,3.1,330.0,5.1,'11111222,11111222,11111222' 
NDBC,ioos:station:NOAA.NDBC:SMKF1:1,2019-12-04T04:40:00Z,24.6280,-81.1120,48.5,4.1,330.0,5.1,'11111222,11111222,11111222' 
NDBC,ioos:station:NOAA.NDBC:SMKF1:1,2019-12-04T05:40:00Z,24.6280,-81.1120,48.5,3.1,330.0,4.1,'11111222,11111222,11111222' 
NDBC,ioos:station:NOAA.NDBC:SMKF1:1,2019-12-04T06:40:00Z,24.6280,-81.1120,48.5,3.6,300.0,5.7,'11111222,11111222,11111222' 
NDBC,ioos:station:NOAA.NDBC:SMKF1:1,2019-12-04T07:40:00Z,24.6280,-81.1120,48.5,6.2,300.0,8.2,'11111222,11111222,11111222' 
NDBC,ioos:station:NOAA.NDBC:SMKF1:1,2019-12-04T08:40:00Z,24.6280,-81.1120,48.5,5.1,290.0,6.7,'11111222,11111222,11111222' 
NDBC,ioos:station:NOAA.NDBC:SMKF1:1,2019-12-04T09:40:00Z,24.6280,-81.1120,48.5,5.1,270.0,6.7,'11111222,11111222,11111222' 
NDBC,ioos:station:NOAA.NDBC:SMKF1:1,2019-12-04T10:40:00Z,24.6280,-81.1120,48.5,7.2,330.0,8.2,'11111222,11111222,11111222' 
NDBC,ioos:station:NOAA.NDBC:SMKF1:1,2019-12-04T11:40:00Z,24.6280,-81.1120,48.5,4.1,300.0,6.2,'11111222,11111222,11111222' 
NDBC,ioos:station:NOAA.NDBC:SMKF1:1,2019-12-04T12:50:00Z,24.6280,-81.1120,48.5,4.1,290.0,6.7,'11111222,11111222,11111222' 
NDBC,ioos:station:NOAA.NDBC:SMKF1:1,2019-12-04T13:40:00Z,24.6280,-81.1120,48.5,4.1,300.0,6.2,'11111222,11111222,11111222' 
NDBC,ioos:station:NOAA.NDBC:SMKF1:1,2019-12-04T14:40:00Z,24.6280,-81.1120,48.5,5.7,290.0,7.7,'11111222,11111222,11111222' 
NDBC,ioos:station:NOAA.NDBC:SMKF1:1,2019-12-04T15:50:00Z,24.6280,-81.1120,48.5,6.7,300.0,8.2,'11111222,11111222,11111222' 
NDBC,ioos:station:NOAA.NDBC:SMKF1:1,2019-12-04T16:50:00Z,24.6280,-81.1120,48.5,4.1,320.0,5.7,'11111222,11111222,11111222' 
NDBC,ioos:station:NOAA.NDBC:SMKF1:1,2019-12-04T17:50:00Z,24.6280,-81.1120,48.5,2.6,330.0,3.1,'11111222,11111222,11111222' 
NDBC,ioos:station:NOAA.NDBC:SMKF1:1,2019-12-04T18:50:00Z,24.6280,-81.1120,48.5,2.6,350.0,4.1,'11111222,11111222,11111222' 
 
DISCLAIMER: The Gulf of Mexico Coastal and Ocean Observing (GCOOS) Data Portal aggregates data from the regional data providers for the convenience of all data users. Data published on this website should not be used for navigation or certain other uses as we cannot guarantee data accuracy or availability. The data and delivery services are provided 'as is' without warranty of any kind. Data Source: Gulf of Mexico Coastal Ocean Observing System Data Portal (http://data.gcoos.org/) 
